[[{"header":{"parameterUnit":"m.s-1","parameterCategory":1,"la1":30.2991,"la2":30.254,"lo1":-89.0895,"lo2":-89.0444,"dy":0.0017,"dx":0.0017,"nx":28,"ny":28,"refTime":"2025-02-09T03:00:00:Z","depth":0,"parameterNumber":2,"parameterNumberName":"U-component_of_WINDS"},"data":[0,0,0,0,0,0,0,0,0,0,0,0,0,0,0,0,0,0,0,0,0,0,0,0,0,0,0,0,0,0,0,0,0,0,0,0,0,0,0,0,0,0,0,0,0,0,0,0,0,0,0,0,0,0,0,0,0,0,-0.7224,-0.7224,0,-0.719,-0.719,-0.719,-0.7182,-0.7182,-0.7182,-0.7183,-0.7144,-0.7143,-0.7142,0,0,0,0,0,0,0,0,0,0,0,0,0,-0.728,-0.7279,-0.7224,-0.7224,-0.7224,-0.7191,-0.719,-0.719,-0.7182,-0.7182,-0.7182,-0.7183,-0.7145,-0.7143,-0.7142,0,0,0,0,0,0,0,0,0,0,0,0,0,-0.7252,-0.7279,-0.7225,-0.7216,-0.7215,-0.7191,-0.719,-0.7189,-0.7182,-0.7182,-0.7182,-0.7183,-0.7145,-0.7143,-0.7141,-0.7122,0,0,-0.7136,-0.7135,0,0,0,0,0,0,0,0,-0.7254,-0.725,-0.7218,-0.7216,-0.7215,-0.7191,-0.7196,-0.7167,-0.7182,-0.7194,-0.7183,-0.7183,-0.7159,-0.7156,-0.7149,-0.7121,-0.7119,-0.7136,-0.7134,-0.7134,-0.7133,0,0,0,0,0,0,0,-0.7256,-0.7251,-0.7211,-0.7217,-0.7216,-0.7213,-0.7209,-0.719,-0.7175,-0.7193,-0.7192,-0.7189,-0.7159,-0.7151,-0.7148,-0.7118,-0.7136,-0.7134,-0.7133,-0.7132,-0.7074,-0.7073,0,0,0,0,0,0,-0.7259,-0.7253,-0.7212,-0.721,-0.7236,-0.7212,-0.7208,-0.7198,-0.7175,-0.7172,-0.7188,-0.7189,-0.7154,-0.715,-0.7147,-0.7123,-0.7134,-0.7132,-0.7131,-0.7074,-0.7074,-0.7073,0,0,0,0,0,0,-0.7261,-0.7256,-0.7213,-0.7231,-0.7226,-0.721,-0.72,-0.7197,-0.7189,-0.7172,-0.7169,-0.7183,-0.7154,-0.7149,-0.7129,-0.7122,-0.7131,-0.7129,-0.7075,-0.7074,-0.7073,-0.7076,0,0,0,0,0,0,-0.7262,-0.7256,-0.7249,-0.7231,-0.7225,-0.7197,-0.7199,-0.7196,-0.7187,-0.7186,-0.7166,-0.7163,-0.7154,-0.7132,-0.7127,-0.7119,-0.7128,-0.7075,-0.7074,-0.7074,-0.7076,-0.7075,-0.7075,0,0,0,0,0,-0.7264,-0.725,-0.7249,-0.7244,-0.7216,-0.7197,-0.7193,-0.7183,-0.7186,-0.7179,-0.7168,-0.7164,-0.7124,-0.713,-0.7124,-0.7116,-0.7076,-0.7075,-0.7074,-0.7077,-0.7076,-0.7075,0,0,0,0,0,0,-0.7266,-0.7248,-0.7246,-0.7226,-0.7213,-0.7195,-0.7185,-0.7182,-0.7167,-0.7168,-0.7156,-0.7151,-0.7132,-0.7122,-0.7129,-0.7097,-0.71,-0.7098,-0.7104,-0.7102,-0.7102,-0.7104,-0.7126,0,0,0,0,0,-0.7265,-0.7252,-0.7236,-0.722,-0.7213,-0.7201,-0.7192,-0.7186,-0.7172,-0.7166,-0.7153,-0.7138,-0.7123,-0.7112,-0.7096,-0.7075,-0.7071,-0.7067,-0.7066,-0.7066,-0.7063,-0.7052,-0.705,-0.707,-0.707,-0.707,0,0,-0.7261,-0.7249,-0.7241,-0.722,-0.7209,-0.7195,-0.7196,-0.7181,-0.717,-0.7163,-0.7143,-0.7134,-0.7117,-0.7096,-0.7086,-0.7087,-0.7057,-0.7064,-0.7064,-0.7062,-0.7051,-0.7049,-0.7047,-0.7069,-0.707,-0.707,0,0,-0.7246,-0.7236,-0.7222,-0.7212,-0.7196,-0.7188,-0.7185,-0.7168,-0.7162,-0.7142,-0.7137,-0.7124,-0.7097,-0.7085,-0.7075,-0.7059,-0.7054,-0.7054,-0.7049,-0.7038,-0.7036,-0.7035,-0.7029,-0.7026,-0.7052,-0.7052,-0.7052,0,-0.7242,-0.7222,-0.7214,-0.72,-0.7191,-0.7186,-0.7171,-0.7161,-0.7141,-0.7134,-0.7136,-0.7103,-0.7091,-0.7068,-0.7064,-0.7057,-0.7052,-0.7055,-0.7037,-0.7036,-0.7034,-0.7028,-0.7026,-0.7052,-0.7052,-0.7052,-0.7052,0,-0.7218,-0.7204,-0.7194,-0.7177,-0.7166,-0.7152,-0.7142,-0.7132,-0.7128,-0.712,-0.71,-0.7086,-0.7068,-0.7063,-0.7057,-0.7039,-0.704,-0.704,-0.7042,-0.7032,-0.7027,-0.7024,-0.7052,-0.7052,-0.7052,-0.7052,0,0,-0.7201,-0.7182,-0.7178,-0.717,-0.7154,-0.7142,-0.7128,-0.7112,-0.7104,-0.709,-0.7077,-0.7056,-0.7056,-0.7045,-0.7039,-0.703,-0.7017,-0.7031,-0.703,-0.7028,-0.6996,-0.6996,-0.6994,-0.7015,-0.7015,-0.7015,-0.6998,0,-0.7184,-0.7159,-0.7153,-0.7131,-0.7118,-0.7114,-0.7102,-0.709,-0.7082,-0.7069,-0.7061,-0.7046,-0.7047,-0.7041,-0.7031,-0.7021,-0.7011,-0.7022,-0.7002,-0.7002,-0.7006,-0.699,-0.699,-0.6974,-0.6995,-0.6995,-0.6995,0,-0.716,-0.7148,-0.7125,-0.7112,-0.7106,-0.7095,-0.708,-0.7068,-0.7055,-0.705,-0.704,-0.7035,-0.7019,-0.7024,-0.7002,-0.701,-0.7002,-0.6996,-0.6995,-0.6992,-0.6997,-0.6986,-0.6969,-0.6967,-0.6991,-0.6991,-0.6992,0,-0.715,-0.7128,-0.7112,-0.7105,-0.7089,-0.7082,-0.7074,-0.7062,-0.7053,-0.704,-0.7034,-0.7019,-0.701,-0.6999,-0.699,-0.6994,-0.6969,-0.6973,-0.6964,-0.6964,-0.6957,-0.6957,-0.6938,-0.6954,-0.6954,-0.6954,-0.6954,0,-0.713,-0.7116,-0.7107,-0.7097,-0.7081,-0.7075,-0.7059,-0.7052,-0.7041,-0.7029,-0.7025,-0.7014,-0.7003,-0.6991,-0.6984,-0.6967,-0.6963,-0.6958,-0.6956,-0.6958,-0.6959,-0.6951,-0.6952,-0.6953,-0.6953,-0.6953,-0.6953,0,-0.7115,-0.7109,-0.7091,-0.7078,-0.7075,-0.7064,-0.7052,-0.7042,-0.7035,-0.702,-0.7016,-0.7005,-0.699,-0.6981,-0.6962,-0.6957,-0.6938,-0.6937,-0.6943,-0.6942,-0.6933,-0.6934,-0.6908,-0.6904,-0.6923,-0.6923,-0.6923,0,-0.7103,-0.7092,-0.7079,-0.7072,-0.7065,-0.7052,-0.7044,-0.7038,-0.7029,-0.7014,-0.7006,-0.6991,-0.6978,-0.6955,-0.6944,-0.693,-0.6928,-0.692,-0.6925,-0.6928,-0.6927,-0.6927,-0.6926,-0.6918,-0.6918,-0.6918,-0.6918,0,-0.7081,-0.7079,-0.7068,-0.7055,-0.7046,-0.7035,-0.7025,-0.7019,-0.7011,-0.7001,-0.6986,-0.6977,-0.6958,-0.6943,-0.6928,-0.692,-0.6917,-0.6916,-0.6913,-0.6914,-0.6918,-0.6915,-0.6939,-0.6916,-0.6917,-0.6917,-0.6917,-0.6917,-0.7066,-0.7057,-0.7047,-0.7035,-0.7027,-0.7018,-0.7008,-0.7001,-0.6989,-0.6974,-0.6971,-0.6956,-0.6944,-0.6924,-0.6916,-0.6903,-0.6904,-0.69,-0.6899,-0.6898,-0.6897,-0.6921,-0.6901,-0.6901,-0.6901,-0.6901,-0.6901,0,-0.7044,-0.7038,-0.7027,-0.7014,-0.7004,-0.7004,-0.6993,-0.6985,-0.6972,-0.6962,-0.6951,-0.6934,-0.6921,-0.691,-0.6896,-0.6888,-0.6887,-0.6885,-0.6884,-0.6883,-0.6897,-0.6901,-0.6886,-0.6886,-0.6886,-0.6886,-0.6886,-0.6886,-0.7031,-0.7016,-0.7013,-0.6994,-0.6988,-0.6974,-0.6967,-0.6959,-0.6951,-0.6933,-0.6923,-0.6917,-0.6906,-0.6892,-0.6879,-0.6877,-0.6871,-0.6869,-0.6866,-0.688,-0.6881,-0.6883,-0.6886,-0.6868,-0.6868,-0.6852,-0.6852,-0.6852]},{"header":{"parameterUnit":"m.s-1","parameterCategory":1,"la1":30.2991,"la2":30.254,"lo1":-89.0895,"lo2":-89.0444,"dy":0.0017,"dx":0.0017,"nx":28,"ny":28,"refTime":"2025-02-09T03:00:00:Z","depth":0,"parameterNumber":3,"parameterNumberName":"V-component_of_WINDS"},"data":[0,0,0,0,0,0,0,0,0,0,0,0,0,0,0,0,0,0,0,0,0,0,0,0,0,0,0,0,0,0,0,0,0,0,0,0,0,0,0,0,0,0,0,0,0,0,0,0,0,0,0,0,0,0,0,0,0,0,4.7676,4.7676,0,4.7622,4.7621,4.7621,4.7564,4.7563,4.7562,4.7561,4.7499,4.7498,4.7497,0,0,0,0,0,0,0,0,0,0,0,0,0,4.7728,4.7727,4.7676,4.7676,4.7675,4.7622,4.7621,4.7621,4.7564,4.7563,4.7562,4.7561,4.7499,4.7498,4.7497,0,0,0,0,0,0,0,0,0,0,0,0,0,4.7693,4.7727,4.7677,4.764,4.7637,4.7622,4.7621,4.762,4.7564,4.7563,4.7562,4.756,4.75,4.7498,4.7497,4.7512,0,0,4.7493,4.7492,0,0,0,0,0,0,0,0,4.7695,4.7691,4.7646,4.7643,4.7639,4.7599,4.7617,4.7584,4.7564,4.7591,4.7561,4.756,4.7533,4.7529,4.7521,4.7509,4.7506,4.7493,4.7492,4.7491,4.7491,0,0,0,0,0,0,0,4.7697,4.7693,4.7655,4.7646,4.7641,4.7626,4.762,4.761,4.7569,4.7589,4.7585,4.7579,4.753,4.7522,4.7519,4.7505,4.7493,4.7492,4.7491,4.749,4.7508,4.7509,0,0,0,0,0,0,4.7706,4.7695,4.7656,4.7653,4.7665,4.7626,4.7619,4.7612,4.7569,4.7561,4.758,4.7577,4.7525,4.7521,4.7516,4.7534,4.7491,4.749,4.7489,4.7507,4.7508,4.751,0,0,0,0,0,0,4.7707,4.7703,4.7659,4.7673,4.7666,4.7626,4.762,4.7612,4.7604,4.7563,4.7555,4.758,4.7524,4.7518,4.7515,4.7531,4.7489,4.7488,4.7505,4.7507,4.7509,4.7568,0,0,0,0,0,0,4.7709,4.7704,4.7709,4.7674,4.7666,4.7659,4.762,4.7612,4.7602,4.7597,4.756,4.7553,4.7523,4.7517,4.7514,4.7528,4.7487,4.7504,4.7506,4.7508,4.7564,4.7572,4.7578,0,0,0,0,0,4.7711,4.7726,4.771,4.7705,4.7672,4.766,4.7655,4.7622,4.7604,4.7609,4.7584,4.7554,4.753,4.7518,4.7513,4.7527,4.7502,4.7505,4.7508,4.7561,4.757,4.7578,0,0,0,0,0,0,4.776,4.772,4.7702,4.7706,4.7688,4.765,4.7656,4.7632,4.7616,4.7612,4.757,4.7562,4.7564,4.7545,4.7532,4.7542,4.7512,4.7514,4.7554,4.7562,4.7569,4.7574,4.7486,0,0,0,0,0,4.7772,4.7767,4.7732,4.7738,4.7731,4.7695,4.7688,4.7666,4.7643,4.7634,4.7608,4.7587,4.7575,4.7567,4.7553,4.7562,4.7554,4.757,4.7577,4.7582,4.7585,4.7592,4.7599,4.7519,4.7519,4.7519,0,0,4.7795,4.7773,4.7772,4.7748,4.7731,4.7727,4.7688,4.7684,4.7681,4.7633,4.763,4.761,4.7583,4.7587,4.7587,4.7571,4.7606,4.7586,4.7591,4.759,4.7595,4.7603,4.761,4.7521,4.7521,4.7521,0,0,4.7836,4.7818,4.7824,4.7809,4.7785,4.7763,4.7764,4.7732,4.7719,4.7715,4.7681,4.7675,4.7654,4.7639,4.7628,4.7669,4.7642,4.7665,4.77,4.7708,4.7714,4.7719,4.7737,4.7743,4.7668,4.7668,4.7668,0,4.7868,4.7861,4.7829,4.7829,4.7821,4.7782,4.7788,4.7774,4.7745,4.7741,4.7724,4.7701,4.7679,4.7681,4.7692,4.7683,4.7685,4.7669,4.7716,4.7721,4.7726,4.7742,4.7748,4.7671,4.7671,4.767,4.767,0,4.7903,4.7899,4.7906,4.7885,4.7877,4.788,4.7848,4.7844,4.7823,4.7803,4.7802,4.7776,4.7758,4.7757,4.7734,4.7756,4.7748,4.7724,4.7693,4.7737,4.7752,4.7757,4.7675,4.7674,4.7673,4.7673,0,0,4.797,4.7935,4.7939,4.7931,4.7904,4.79,4.7902,4.7888,4.7887,4.7869,4.7871,4.7857,4.7837,4.7825,4.78,4.7806,4.7845,4.7782,4.7781,4.7797,4.7872,4.7891,4.7899,4.7827,4.7828,4.7829,4.7875,0,4.8008,4.8012,4.7985,4.7996,4.7993,4.7958,4.7961,4.7944,4.7926,4.7921,4.79,4.7892,4.7864,4.7858,4.7862,4.7839,4.786,4.7835,4.7829,4.7829,4.7838,4.7906,4.7925,4.7969,4.788,4.7881,4.7882,0,4.8051,4.8042,4.8054,4.8031,4.8029,4.8032,4.8019,4.8015,4.7997,4.7983,4.7973,4.7946,4.7947,4.7919,4.7921,4.7905,4.7901,4.789,4.7891,4.789,4.7859,4.7908,4.7982,4.799,4.789,4.7889,4.7888,0,4.8103,4.8093,4.81,4.8093,4.8066,4.8069,4.8058,4.8039,4.8034,4.8023,4.8019,4.8007,4.8001,4.7992,4.7964,4.7946,4.7971,4.7939,4.796,4.7961,4.7967,4.7967,4.8043,4.7962,4.7962,4.7962,4.7962,0,4.8149,4.8158,4.8123,4.8127,4.8137,4.8107,4.8118,4.8102,4.8087,4.8088,4.8055,4.8056,4.8019,4.8016,4.7994,4.8001,4.7997,4.7987,4.7981,4.799,4.7992,4.7988,4.7984,4.7963,4.7963,4.7963,4.7962,0,4.8208,4.8185,4.8191,4.8167,4.8161,4.817,4.8148,4.8152,4.8133,4.8135,4.8134,4.8104,4.81,4.8071,4.8059,4.8044,4.806,4.8047,4.8067,4.8064,4.8088,4.8087,4.8165,4.8175,4.8086,4.8087,4.8087,0,4.8239,4.8246,4.8224,4.8225,4.8216,4.8215,4.8212,4.8183,4.818,4.8163,4.8169,4.8163,4.8157,4.8151,4.8128,4.812,4.8108,4.8136,4.8106,4.8117,4.8111,4.8112,4.8114,4.8142,4.8143,4.8144,4.8145,0,4.8297,4.8287,4.8284,4.8279,4.8277,4.827,4.8262,4.8263,4.8232,4.8231,4.8228,4.8223,4.8214,4.8209,4.8198,4.8185,4.8161,4.8155,4.816,4.817,4.8183,4.818,4.8087,4.8153,4.8152,4.8152,4.8151,4.8151,4.8345,4.8351,4.8339,4.8338,4.833,4.8324,4.8327,4.8312,4.8309,4.8302,4.8285,4.8286,4.8271,4.8254,4.8244,4.8244,4.8229,4.8235,4.8237,4.824,4.8246,4.8183,4.8241,4.8241,4.8241,4.8241,4.824,0,4.8404,4.8396,4.8396,4.8387,4.8387,4.8367,4.8358,4.8359,4.8361,4.8351,4.8347,4.8346,4.8342,4.8321,4.8315,4.832,4.8309,4.8319,4.8319,4.8318,4.8258,4.8256,4.8329,4.8329,4.8329,4.8329,4.8329,4.8329,4.8435,4.8446,4.8436,4.8443,4.8434,4.8437,4.8434,4.8429,4.8421,4.8423,4.8421,4.8408,4.8394,4.8388,4.8385,4.8378,4.8379,4.8394,4.8384,4.8329,4.8321,4.8313,4.8311,4.8394,4.8394,4.8443,4.8444,4.8444]}]]